Theta_e
310 312 318 322 323 323 323 321 318 320 320 315 316 316 318 321 322 322 322 322 322 322 324 327 328 328 334 346 356 358 354 359 360 360 364 357 345 346 347 344 334 324 322 322 329 333 328 328 333 339 342 342 340 338 338 337 335 334 336 336 334 331 330 335 340 342 343 342 343 343 343 343 343 343 342 342 343 343 343 343 341 339 340 341 341 341 340 336 332 331 331 330 328 324 323 325 329
310 313 321 324 324 321 320 319 317 317 315 312 314 316 318 321 322 322 321 322 322 323 327 328 329 330 333 346 354 358 359 357 358 359 353 345 344 345 344 340 330 324 321 318 323 327 329 331 333 338 342 342 340 338 337 336 334 335 336 336 334 330 333 339 342 343 343 342 343 343 343 343 343 343 342 342 342 342 342 342 341 339 340 341 342 340 336 333 332 331 331 331 329 325 322 321 321
310 314 320 323 324 320 318 318 316 313 312 311 312 318 319 320 320 321 322 322 323 326 329 328 330 329 329 348 355 358 361 355 353 350 346 345 345 343 340 334 328 324 320 316 320 323 328 333 334 337 341 342 341 338 336 335 335 337 337 336 333 331 336 342 342 342 342 343 343 343 343 343 343 342 342 342 341 341 341 342 340 338 339 340 341 341 336 333 332 330 330 330 330 328 324 321 318
310 312 316 320 320 317 318 318 318 314 312 311 311 318 320 320 320 321 322 323 327 327 329 328 329 331 340 355 356 357 359 354 353 350 348 348 344 343 338 332 328 324 321 317 319 320 326 334 335 337 341 342 341 340 337 337 337 337 337 336 332 333 339 343 342 343 343 343 343 343 343 342 343 342 342 341 341 341 340 341 339 339 339 339 341 341 338 334 330 330 329 328 328 328 326 324 320
310 311 314 318 318 317 319 319 318 314 311 313 312 317 320 320 320 320 323 324 326 326 326 324 328 338 348 352 352 357 358 354 353 352 350 347 344 342 337 333 329 328 326 319 317 319 326 334 334 337 341 341 341 340 338 338 339 338 337 334 332 336 342 343 342 343 343 343 343 343 343 343 343 342 342 341 341 341 340 339 337 337 336 335 339 341 340 334 330 329 329 328 326 326 326 325 321
312 313 314 315 318 317 317 315 314 313 313 316 314 318 320 319 320 320 323 324 323 326 326 323 331 346 354 351 351 354 354 354 353 352 350 346 345 341 337 335 334 335 331 321 318 318 326 332 333 336 340 340 341 340 340 339 339 338 335 333 335 340 343 342 343 343 343 343 343 343 343 343 343 343 342 341 341 340 339 338 334 333 330 332 339 342 339 333 329 329 328 328 326 325 325 324 320
315 316 315 316 317 316 316 313 312 313 315 318 316 318 319 319 321 320 321 323 323 324 323 325 334 349 354 352 356 355 351 355 354 351 348 346 344 340 338 339 339 338 331 322 317 317 324 330 332 335 338 340 341 341 342 340 339 337 335 336 339 342 343 343 344 343 343 342 342 342 341 341 342 342 342 341 341 340 338 337 334 332 332 336 340 340 336 330 328 328 328 328 327 327 326 324 320
315 316 317 317 318 315 314 312 312 314 315 318 318 318 320 319 320 320 320 321 322 322 325 329 336 351 355 355 361 359 354 355 353 350 347 345 343 341 341 342 341 339 332 323 317 318 325 328 331 334 337 340 340 341 342 341 338 337 339 341 341 342 343 343 343 343 343 342 341 340 340 340 339 339 338 339 340 339 338 336 334 332 334 337 336 337 333 328 328 328 328 328 328 328 328 326 320
314 317 318 317 318 315 312 311 311 314 315 317 317 319 321 321 320 320 321 322 323 324 327 330 338 352 358 361 362 358 354 353 351 349 347 344 343 343 343 343 341 340 333 324 319 320 326 328 329 333 336 339 341 341 342 339 337 339 342 343 342 343 343 343 343 343 342 341 341 340 340 336 332 330 330 335 337 336 337 338 335 331 333 332 330 334 330 327 328 327 329 329 328 328 329 326 319
315 317 318 317 316 314 311 311 311 313 314 316 316 317 320 320 320 320 322 323 323 323 324 332 345 352 358 362 360 359 355 351 351 349 347 345 345 344 344 343 340 337 330 325 320 320 329 332 329 332 334 337 340 339 338 337 338 342 343 343 342 343 343 343 343 342 342 341 340 339 337 332 326 324 323 329 336 336 336 338 336 332 330 327 328 332 329 326 327 328 330 328 328 329 330 327 319
318 316 316 315 315 312 311 311 312 314 315 315 316 317 318 319 319 320 321 323 321 323 320 328 347 353 356 360 360 358 354 352 351 349 348 347 346 345 344 343 340 334 327 323 320 325 335 336 334 335 336 336 337 337 338 339 341 343 343 344 343 343 343 342 343 342 342 340 339 337 334 330 324 320 318 323 332 336 335 335 336 333 326 324 329 330 328 326 327 329 330 328 328 329 330 328 319
319 316 314 313 313 313 313 312 313 316 316 315 316 317 318 318 319 319 320 322 320 323 320 322 344 354 357 360 359 356 355 353 352 351 350 348 346 345 343 343 340 332 326 322 322 330 337 338 337 339 339 338 339 340 340 342 343 344 343 344 343 343 343 343 342 342 341 338 337 335 331 326 319 316 316 317 322 329 333 333 334 330 321 324 329 329 327 326 327 330 330 328 328 329 329 328 321
318 317 315 313 313 313 313 313 314 319 318 317 318 317 319 318 319 319 320 322 320 322 320 325 344 354 357 360 360 357 357 354 352 351 349 348 346 344 344 343 338 330 326 322 322 331 337 339 339 339 339 340 341 342 342 342 343 343 343 343 343 343 343 342 342 341 339 337 334 331 325 320 317 315 314 314 315 320 326 329 330 324 319 325 328 328 327 326 328 330 330 329 329 329 329 328 322
317 317 317 315 315 313 313 312 313 315 314 318 318 318 319 318 320 319 320 321 320 321 318 331 346 355 359 361 362 359 358 353 351 350 348 348 346 345 344 341 336 329 326 324 323 331 338 339 340 340 339 340 342 342 342 343 343 343 343 343 343 342 343 342 341 340 338 336 331 326 322 320 319 316 312 311 312 314 316 320 322 318 319 325 328 328 327 326 327 329 331 330 329 329 329 328 323
316 316 317 316 315 313 313 313 313 312 312 318 318 319 320 319 321 319 322 320 319 321 321 340 349 358 358 362 364 359 356 353 351 350 349 347 346 345 342 339 334 330 329 327 327 333 338 340 341 341 341 341 342 343 342 342 343 343 343 344 343 342 342 342 341 340 338 333 328 325 324 322 320 317 313 310 309 310 311 313 314 315 320 326 328 328 327 326 327 329 331 330 330 329 329 329 325
317 316 316 315 314 313 314 314 315 313 314 318 318 321 320 319 322 319 321 319 320 321 319 335 342 350 355 358 360 356 355 353 351 349 349 347 346 344 342 339 336 335 333 331 333 335 337 339 340 341 342 342 342 343 342 342 343 343 343 344 343 342 342 342 340 340 337 332 329 328 326 324 322 320 317 311 309 309 308 309 310 315 321 326 328 328 327 327 326 328 330 330 331 329 329 329 326
317 316 316 314 313 313 314 316 315 314 316 318 318 321 320 320 321 319 322 319 321 319 321 341 347 348 351 355 356 354 355 352 351 350 349 348 347 346 343 341 340 340 338 336 337 337 337 338 340 341 342 342 343 342 342 343 343 343 343 343 343 342 342 342 340 340 337 332 331 330 328 326 325 324 321 316 313 310 309 309 310 315 321 325 327 327 327 327 326 327 329 330 331 330 329 329 328
317 317 316 313 314 313 315 316 316 317 317 318 319 320 320 320 319 320 321 320 320 318 338 357 360 357 353 355 356 354 354 351 351 350 350 349 348 347 344 343 343 342 342 341 340 339 337 336 339 341 341 342 342 343 343 343 343 344 343 343 344 342 342 341 340 340 337 334 332 331 330 329 329 328 326 323 319 315 312 309 309 313 319 324 326 327 328 327 326 327 328 328 329 330 330 330 330
317 318 316 314 315 315 316 317 317 317 317 318 320 320 320 319 319 321 320 321 319 318 347 362 360 360 357 355 355 353 353 351 351 350 350 350 349 348 346 345 344 343 343 343 342 340 335 334 338 338 339 340 341 342 343 344 344 343 343 343 343 342 342 341 340 340 338 335 333 332 333 335 336 335 334 332 326 321 317 312 310 312 318 323 325 327 326 326 327 326 327 327 327 327 328 329 330
316 317 317 316 316 316 317 317 317 317 317 318 319 320 320 320 319 321 320 321 320 319 348 363 361 359 357 354 354 353 353 352 351 351 351 350 350 349 347 346 344 344 344 343 343 339 334 337 338 336 336 337 338 341 342 343 343 343 342 342 342 342 342 341 341 340 339 337 334 335 338 340 341 340 340 339 332 327 323 317 313 311 314 319 323 326 326 326 326 326 326 326 326 326 328 332 335
315 317 316 317 317 317 316 316 317 317 318 318 319 320 319 322 319 320 319 319 322 319 343 361 360 358 357 355 354 353 352 352 351 351 351 350 350 349 348 347 345 345 345 344 342 339 338 341 339 337 338 337 336 339 341 342 342 342 342 342 342 342 342 341 341 340 340 338 337 339 342 342 342 342 342 341 337 333 330 325 322 318 314 316 319 319 321 323 323 324 323 323 325 325 324 332 338
314 315 316 317 316 316 316 317 317 317 317 317 318 319 318 322 319 321 319 318 323 318 339 358 358 356 356 354 354 353 353 352 352 351 351 351 350 350 349 347 346 345 346 345 342 341 342 342 339 340 340 338 337 337 339 341 341 341 341 341 341 342 342 341 342 342 342 341 340 342 342 342 343 343 342 341 339 338 338 334 332 330 325 326 326 320 322 326 328 329 325 324 328 329 325 329 335
313 313 314 316 317 316 317 316 317 316 316 316 318 319 318 320 319 321 318 319 322 318 341 357 355 354 354 354 354 354 354 353 352 352 351 351 350 350 348 348 346 346 347 345 343 344 344 342 341 342 339 340 339 334 336 339 340 340 340 341 342 342 342 343 343 344 343 343 342 342 342 341 343 342 341 340 339 339 339 337 336 336 334 336 335 331 333 335 335 335 333 332 333 333 331 331 333
313 313 313 315 316 316 316 316 316 316 316 317 319 320 319 318 319 319 318 321 320 324 347 356 353 354 354 353 354 353 353 353 352 351 351 351 351 350 349 348 347 347 347 346 345 345 345 344 343 343 340 341 339 333 334 338 340 341 341 342 342 342 343 343 344 344 344 343 343 342 341 341 342 341 340 340 340 338 338 337 337 337 336 337 337 336 337 337 336 336 335 334 333 333 333 333 333
313 313 314 314 316 316 316 316 316 316 316 318 320 320 319 318 318 317 318 319 320 337 353 354 353 355 354 354 354 353 353 353 352 352 352 350 347 345 345 347 348 347 347 346 346 346 346 345 344 342 341 341 338 333 335 338 339 340 341 341 341 343 343 343 343 343 343 343 343 342 341 341 341 339 339 339 339 339 339 339 338 338 337 337 338 337 335 336 337 337 335 335 335 334 333 333 333
313 314 314 314 315 316 316 316 316 316 316 319 320 319 319 319 318 317 318 318 325 345 354 353 354 355 354 355 354 354 353 354 353 353 349 342 339 338 338 344 348 347 347 347 346 346 346 345 344 343 342 340 336 334 336 337 337 339 341 340 340 342 342 342 343 342 342 342 342 341 340 341 340 339 338 338 338 339 339 340 340 339 339 339 339 338 336 335 337 338 337 336 336 335 335 335 334
314 314 314 314 315 315 316 315 316 316 317 319 320 320 319 319 318 317 319 318 331 351 354 352 355 354 354 355 354 355 354 353 353 351 344 338 337 338 339 344 347 348 347 347 346 346 346 345 344 343 341 339 335 335 337 337 336 337 339 340 340 341 342 341 342 341 341 342 342 341 340 340 340 339 338 338 338 337 338 340 339 339 339 339 339 339 338 337 337 337 337 336 336 336 336 336 336
314 314 314 314 315 315 315 316 316 316 317 319 319 319 319 318 317 316 319 317 329 350 355 352 354 355 355 356 354 355 354 353 353 349 343 340 340 339 342 345 346 348 347 346 346 346 346 345 344 343 341 338 336 336 338 338 338 337 337 340 340 340 340 341 341 341 341 341 341 340 339 339 338 338 338 338 338 338 339 340 339 339 338 338 339 339 338 339 339 338 337 337 337 337 336 336 336
313 314 313 314 314 314 315 315 315 316 316 318 319 318 317 317 317 316 319 317 322 345 355 353 355 355 355 356 355 355 355 353 352 347 343 341 342 341 343 345 344 345 346 346 346 345 345 345 343 342 341 338 336 336 338 338 339 338 337 338 339 339 340 340 339 340 341 341 340 339 337 337 337 337 338 339 339 339 340 340 340 339 339 339 339 340 340 339 339 338 339 339 339 339 338 338 337
313 314 313 313 313 313 315 315 315 316 316 319 318 315 315 317 318 317 319 318 316 337 354 353 353 355 354 355 355 355 355 354 351 346 344 343 342 344 344 344 343 345 347 346 345 345 345 344 342 341 339 337 335 336 338 338 338 337 336 338 339 339 340 339 338 339 340 340 339 338 336 335 336 337 338 339 339 340 341 341 341 341 340 340 340 340 340 339 338 338 339 340 340 340 339 339 338
313 313 313 313 311 311 315 316 316 315 315 319 318 313 314 316 318 318 317 319 314 328 350 352 350 354 354 356 356 355 355 353 350 346 345 345 344 344 343 342 344 346 346 345 345 345 344 343 341 339 337 336 336 337 338 337 336 336 337 338 338 339 339 338 339 339 339 338 337 337 336 335 336 337 339 339 339 341 342 342 342 341 340 340 339 340 340 339 339 339 340 340 340 340 340 339 339
312 311 311 311 310 311 314 317 315 316 315 317 318 312 314 317 317 318 316 319 315 319 342 348 345 350 354 356 356 355 355 351 349 347 346 347 345 344 342 343 344 342 340 341 343 344 343 341 339 338 337 335 335 337 339 337 336 336 337 336 336 337 337 337 338 338 338 338 338 338 339 339 339 340 340 340 340 341 342 341 341 341 340 340 340 339 339 339 338 338 339 338 338 338 338 338 338
312 311 311 311 310 310 313 315 315 316 316 315 316 313 315 317 316 319 316 318 316 316 338 347 343 348 354 355 355 356 355 352 350 347 346 348 346 343 344 345 341 336 337 339 340 342 341 340 338 337 337 337 336 338 339 338 336 336 337 335 335 337 337 338 338 339 339 339 340 340 341 341 340 341 340 340 341 341 341 341 340 341 340 340 339 340 339 338 338 338 338 337 337 337 337 338 338
312 312 311 312 311 311 311 313 315 315 315 315 316 314 316 317 317 319 316 318 316 318 340 347 345 351 353 354 355 355 355 353 350 348 347 347 344 340 341 341 338 336 338 338 338 340 340 338 336 336 338 338 337 338 338 338 337 337 337 336 336 337 339 340 339 340 340 339 341 342 341 341 340 341 341 341 340 340 341 340 340 340 339 339 339 339 338 338 338 338 338 337 337 337 337 338 339
312 312 312 312 311 312 311 311 315 314 315 315 314 314 315 316 318 317 317 319 314 323 345 347 346 351 352 353 355 355 354 351 347 344 343 341 338 336 336 337 337 337 338 338 338 338 338 338 335 336 339 338 337 338 339 339 340 339 338 337 337 338 339 339 339 339 339 338 339 341 341 341 340 341 341 341 340 339 340 339 339 339 338 338 339 339 338 337 338 338 338 337 337 337 338 338 338
312 312 312 311 310 311 312 313 315 314 314 314 314 314 315 316 317 316 317 316 316 334 348 345 344 348 350 354 354 352 348 343 339 337 336 336 336 336 336 337 337 337 337 338 338 338 337 337 336 337 339 337 338 340 340 340 340 339 338 337 338 340 340 339 340 339 339 339 338 338 340 341 341 341 340 341 339 337 338 339 339 339 338 337 337 338 337 337 337 338 337 337 337 337 337 337 337
311 312 311 311 309 310 313 314 314 315 314 313 315 315 315 316 315 317 317 316 332 349 348 344 344 346 349 352 349 344 338 336 336 334 334 335 335 336 337 338 338 337 337 338 339 339 338 337 338 339 338 337 339 340 339 340 340 339 339 337 338 340 340 340 339 339 339 338 337 337 339 341 340 340 340 340 338 336 337 339 339 339 338 338 338 338 337 337 337 337 338 338 337 337 337 337 337
311 311 310 310 310 310 313 314 314 315 314 312 316 315 314 317 315 317 316 314 338 352 346 345 345 345 348 347 342 338 336 335 336 335 334 334 334 335 337 337 337 337 337 338 339 339 338 338 339 339 337 337 340 340 339 339 339 339 339 337 337 339 340 340 340 339 338 338 336 338 340 340 340 339 339 339 338 336 337 339 340 340 339 339 340 339 339 338 338 338 338 338 337 337 337 337 337
311 311 310 310 311 311 312 314 314 314 314 314 315 314 314 317 316 318 316 318 339 347 344 345 345 344 346 344 339 337 338 336 336 336 333 333 334 335 337 337 337 337 337 338 338 340 340 340 340 339 338 338 339 339 338 339 339 339 338 338 338 339 339 340 339 338 338 337 336 338 340 340 340 339 339 340 339 339 340 340 340 340 340 340 340 339 339 338 338 338 337 337 337 337 337 337 337
312 311 310 310 311 311 310 313 314 314 316 316 316 315 315 317 317 318 315 326 344 343 341 343 343 345 346 344 338 336 339 337 337 336 335 334 333 334 336 336 337 336 336 336 337 340 341 341 340 339 339 339 339 338 337 338 338 338 338 338 338 338 339 339 338 337 338 337 337 339 340 341 341 339 340 341 340 340 341 340 340 340 339 339 339 338 337 337 337 336 335 336 336 336 337 336 335
312 311 311 310 311 311 311 313 315 315 315 319 317 313 316 319 318 318 316 330 345 341 340 344 345 346 343 341 338 336 337 336 337 337 335 335 334 334 335 335 336 336 336 337 339 341 341 340 341 339 339 339 338 338 337 336 338 338 338 337 337 337 337 337 336 337 337 337 337 340 340 340 341 341 341 341 341 340 339 339 339 339 338 338 337 337 336 336 336 335 335 335 335 335 336 335 334
311 312 312 311 312 312 312 313 314 312 311 317 316 310 317 325 318 316 317 332 347 342 342 346 344 343 340 340 339 336 336 335 337 336 334 335 335 334 334 335 337 337 336 339 341 341 341 340 340 339 339 338 338 338 337 336 337 338 338 337 336 335 335 335 336 337 337 337 339 341 341 340 341 341 341 340 340 339 339 338 338 337 337 337 337 336 335 335 335 335 335 334 334 334 334 334 335
310 312 313 312 313 312 312 312 310 311 312 317 316 312 317 324 319 318 317 329 346 345 345 346 342 341 340 339 338 336 336 336 337 335 333 335 334 333 333 335 337 337 336 339 341 341 341 340 340 339 339 338 337 337 337 337 338 338 338 337 336 336 335 335 336 337 337 338 340 341 341 341 341 340 339 339 338 338 338 337 337 337 336 336 336 335 335 335 335 334 334 333 333 333 333 334 334
310 313 313 313 313 311 312 312 309 312 316 316 316 313 314 315 316 322 318 323 343 348 346 346 342 341 341 339 337 337 336 336 336 335 334 335 335 334 333 335 337 337 336 337 340 340 340 340 340 340 339 338 337 337 337 337 338 338 337 336 336 336 336 336 336 337 338 340 340 340 341 340 339 339 338 338 337 337 336 336 336 336 335 335 335 334 334 333 333 333 333 333 333 333 333 333 333
311 313 314 313 313 313 313 311 310 312 314 312 312 313 312 312 314 322 319 318 339 351 348 345 342 341 340 339 337 336 335 335 335 334 335 336 335 334 334 335 337 337 336 337 339 340 339 340 340 339 339 338 338 338 337 337 338 338 336 335 336 336 337 337 337 337 338 340 337 337 340 339 338 338 337 337 336 336 335 335 335 334 334 333 333 333 332 332 332 332 331 331 331 331 331 332 332
312 313 314 313 313 314 312 312 312 312 314 314 313 311 311 313 313 316 318 313 331 351 349 343 342 340 340 339 338 336 334 334 334 334 335 336 334 334 335 336 336 338 338 337 339 339 338 339 339 339 339 339 338 338 338 338 338 337 336 336 336 336 337 337 337 336 337 337 334 334 338 338 337 337 336 336 335 335 335 334 334 333 332 332 331 331 331 331 331 330 330 330 330 330 330 331 331
313 313 313 313 313 313 313 315 312 310 318 321 315 310 310 314 314 313 319 318 329 347 348 343 342 341 340 339 338 337 335 334 334 335 336 335 334 334 336 336 336 339 339 338 338 339 338 339 338 339 339 339 339 338 338 338 337 337 336 336 337 337 337 336 335 334 334 335 333 333 338 338 337 336 335 335 334 334 333 333 332 331 331 330 330 330 330 329 329 329 329 329 330 330 331 331 332
314 313 313 312 312 312 312 314 312 312 321 322 313 311 310 312 316 317 322 323 329 343 346 344 343 342 340 339 338 337 335 335 335 336 336 335 334 335 336 337 337 338 339 338 338 338 338 338 338 338 339 339 339 338 339 338 338 337 336 336 337 336 336 335 334 333 334 334 333 334 337 337 336 335 334 334 333 332 331 330 329 329 329 329 329 329 329 329 329 329 330 330 330 331 331 332 332
313 312 313 313 312 312 313 314 314 315 319 316 310 311 310 313 321 323 324 321 326 338 344 343 342 343 341 339 338 337 336 335 335 336 336 335 334 335 336 337 337 338 337 337 337 338 337 338 338 338 339 339 339 338 338 339 338 337 336 335 336 336 335 334 334 334 334 334 334 334 335 335 334 333 332 332 331 330 329 328 328 328 328 328 328 328 329 328 329 329 329 330 330 330 331 331 331
311 311 312 315 314 314 315 316 315 315 316 313 310 312 311 314 321 322 322 321 326 335 340 341 341 342 341 340 338 337 337 336 336 336 335 334 334 336 337 337 337 337 337 336 337 337 337 337 338 339 340 339 339 339 338 339 339 337 334 334 335 335 334 334 334 334 334 334 334 334 334 333 332 331 331 330 329 328 328 327 327 328 327 327 327 327 327 327 327 327 328 328 329 329 329 330 330
312 312 313 314 314 314 316 315 314 315 314 311 311 312 311 314 321 324 321 319 326 334 338 340 340 340 339 339 338 337 337 336 337 337 336 335 335 336 338 337 337 336 336 337 337 337 337 337 338 340 340 339 339 338 338 338 338 335 333 333 334 334 333 333 334 333 333 334 334 334 333 332 331 330 329 328 327 327 327 327 326 326 326 326 326 326 325 325 325 326 326 327 328 328 328 329 330
312 313 312 312 315 318 319 315 316 317 315 315 315 314 314 317 322 323 319 319 329 336 339 341 340 339 339 340 339 337 337 337 337 338 336 336 336 338 338 337 337 337 337 338 337 338 338 338 339 340 339 338 338 337 337 337 336 334 333 333 333 333 333 333 333 333 333 334 333 333 332 331 330 329 328 328 326 326 326 325 325 325 325 325 325 325 324 324 324 325 326 327 327 327 328 328 328
314 312 311 312 313 319 320 316 316 318 319 321 317 313 315 316 319 321 317 324 335 339 341 341 340 340 340 340 340 338 338 337 337 338 337 336 337 339 338 337 337 337 337 338 338 338 339 339 340 339 338 337 337 336 336 335 334 333 333 333 333 333 333 333 334 334 333 333 332 331 330 329 328 328 327 327 325 325 325 324 324 324 324 324 324 323 323 323 324 325 326 326 326 327 327 327 326
313 310 311 313 311 315 321 318 314 315 320 322 316 312 313 313 320 328 320 330 341 341 341 341 339 341 341 341 340 339 339 338 338 339 338 337 339 339 338 337 337 337 338 339 339 339 340 339 339 338 337 337 336 335 334 334 333 334 333 333 333 333 333 333 333 333 332 332 330 329 328 327 326 326 326 325 324 323 323 323 323 324 323 323 322 322 323 323 324 325 325 325 325 326 325 324 323
313 312 311 314 313 312 317 318 317 316 317 318 316 315 315 311 317 324 318 331 343 342 340 341 340 341 341 340 341 340 339 339 339 339 338 338 339 339 338 337 337 337 338 339 340 339 339 339 338 337 337 336 334 333 333 333 334 334 334 334 334 334 333 333 332 331 331 330 328 327 327 326 325 324 324 324 323 323 322 322 323 322 322 322 322 322 322 323 323 324 324 324 324 324 323 322 322
313 312 311 312 314 314 314 316 317 318 318 318 316 316 317 318 323 322 321 335 342 341 341 342 340 340 341 340 341 341 340 340 340 339 339 340 340 339 338 337 337 338 339 339 339 339 338 338 337 336 336 335 334 333 334 335 335 334 334 334 333 333 332 331 331 330 329 328 327 326 325 325 324 323 323 323 322 322 322 321 321 321 321 322 322 322 322 322 323 322 322 323 323 322 322 321 320
314 312 311 310 310 313 315 314 313 316 322 320 316 317 321 328 331 320 322 337 342 341 342 342 341 341 340 340 341 341 341 341 340 339 340 341 341 340 338 338 338 338 339 339 338 338 338 338 336 336 335 335 335 335 336 335 335 334 333 332 332 331 330 330 329 329 327 326 325 325 324 324 323 322 322 322 321 321 320 321 321 321 321 321 321 321 321 321 321 321 321 321 321 321 321 320 318
314 313 312 311 312 312 312 313 311 311 318 321 319 319 322 329 336 329 328 338 341 342 342 342 343 342 341 341 340 341 342 341 340 339 341 341 341 340 339 339 339 339 339 338 338 338 338 338 336 336 336 336 336 336 335 334 333 332 332 331 330 329 329 328 328 327 326 325 324 323 323 323 322 321 321 320 319 320 320 320 320 320 320 319 319 319 319 320 320 320 320 320 320 320 319 318 316
Wind_Speed
7 5 4 6 9 9 8 1 1 2 3 4 4 4 5 7 8 10 13 12 9 6 5 3 8 6 10 11 11 12 8 3 3 4 2 5 22 32 30 30 33 33 32 29 26 23 22 23 22 22 21 21 22 23 23 23 23 22 21 20 18 17 17 18 19 18 18 18 17 17 16 16 16 16 16 16 15 15 15 15 15 15 15 15 15 16 16 16 16 16 16 15 15 14 14 13 13
7 7 5 8 10 4 3 2 1 3 3 5 5 5 7 8 9 12 15 14 11 3 1 4 9 7 13 16 13 13 10 7 8 7 6 19 29 28 32 33 34 34 32 30 28 25 24 24 23 22 21 21 22 23 23 23 24 22 21 20 19 17 18 19 19 18 18 17 17 16 15 15 15 16 16 15 15 14 14 14 14 14 15 15 14 15 16 15 14 14 14 13 13 12 12 11 11
7 9 8 7 6 3 2 1 2 3 4 6 5 5 7 8 12 15 15 12 10 4 3 3 7 4 7 13 11 11 7 6 14 11 9 22 22 21 33 35 35 34 32 32 28 26 25 24 23 23 22 22 22 24 24 24 24 23 22 21 19 19 20 20 19 19 18 17 16 16 15 14 15 15 15 15 15 14 14 13 13 14 14 14 13 14 14 14 13 13 13 12 11 10 10 10 9
8 9 9 4 1 2 0 1 3 4 5 6 4 5 8 10 16 15 9 2 2 0 1 3 5 3 9 14 9 10 9 6 13 13 8 15 20 27 34 34 35 33 32 32 29 28 26 24 24 24 23 22 22 23 24 25 24 23 23 21 20 20 21 19 19 19 18 17 16 15 15 14 14 15 15 15 14 14 13 13 13 13 14 14 13 13 13 12 12 12 12 11 10 9 9 8 9
10 9 8 4 1 1 1 2 3 5 6 5 4 5 8 11 15 12 4 3 5 4 3 2 3 4 10 10 5 6 9 8 11 15 13 19 31 35 33 33 34 32 31 31 30 29 26 24 24 25 24 23 23 23 25 25 25 24 23 22 21 21 21 20 19 18 17 17 16 15 15 14 14 14 15 15 14 13 12 12 12 12 13 13 13 12 11 12 12 11 11 11 10 9 9 8 9
9 8 8 6 2 2 2 4 4 6 7 6 5 6 9 13 16 13 6 4 4 7 3 1 5 8 7 5 5 4 10 12 10 15 21 28 35 35 34 33 31 30 31 31 30 29 26 25 25 26 25 24 23 23 24 26 26 25 24 23 23 22 21 20 19 18 17 16 16 15 14 14 14 14 14 14 13 12 12 11 11 11 11 11 12 10 11 12 11 11 11 10 10 10 9 8 9
6 5 3 3 2 3 2 5 5 6 7 9 9 8 10 13 16 15 11 6 3 3 4 1 9 12 5 3 5 3 11 16 12 19 30 35 36 35 34 32 31 30 30 30 30 29 27 25 26 26 25 24 23 23 24 26 26 25 24 23 23 22 21 20 18 17 17 16 15 14 14 13 13 13 12 12 12 12 12 11 10 10 11 12 11 10 11 12 10 10 10 10 10 10 9 8 9
8 4 1 3 2 3 3 6 6 5 5 9 10 11 13 15 15 15 13 7 3 1 4 4 12 12 4 7 5 4 14 21 23 32 38 39 37 35 33 33 32 30 29 30 30 28 27 26 26 25 24 23 23 24 24 26 26 25 23 22 23 22 21 20 18 17 16 15 14 13 13 12 12 11 11 11 11 11 11 10 9 10 11 11 11 11 12 11 10 10 9 9 9 10 9 8 8
8 5 1 2 3 3 4 5 6 7 8 10 11 12 13 15 17 16 12 5 3 4 6 6 11 12 7 12 8 4 15 29 36 37 39 38 36 34 34 35 33 30 29 30 29 29 28 27 27 25 24 23 23 24 25 26 26 24 23 22 23 22 21 19 18 17 15 15 14 13 13 12 11 10 10 10 11 11 12 11 10 9 10 10 10 12 12 10 10 10 9 9 9 10 9 8 8
5 5 2 2 4 5 5 5 6 7 10 12 13 15 14 13 15 13 8 7 7 5 5 7 13 14 12 12 7 4 16 32 36 34 35 35 34 35 35 34 33 32 30 30 29 29 27 26 26 25 24 24 24 26 26 26 26 25 23 23 23 22 21 19 18 16 15 14 14 13 12 11 9 9 9 10 11 11 12 11 10 9 8 9 11 13 11 10 10 9 9 9 9 9 9 8 8
2 4 3 2 4 5 5 5 6 7 10 11 13 17 16 15 16 12 8 8 5 4 2 7 13 13 13 9 5 9 20 29 31 30 31 32 34 36 36 33 31 32 31 30 29 28 26 24 24 24 24 25 25 27 26 26 26 25 23 23 22 22 20 19 18 16 15 14 13 12 11 9 8 8 9 10 11 11 12 11 9 8 8 10 13 13 11 11 10 9 9 9 8 8 8 8 8
2 4 3 4 4 5 5 5 7 7 10 10 12 14 13 15 18 15 10 6 3 5 2 4 10 11 11 7 4 12 19 21 26 29 30 33 36 37 36 33 31 31 31 30 30 28 26 24 24 24 24 25 26 27 26 26 26 25 24 23 22 22 20 19 17 16 14 13 12 10 9 8 7 8 9 10 11 12 12 11 9 8 8 12 14 13 11 11 9 9 9 8 8 7 8 7 7
3 4 4 4 4 4 5 6 7 8 8 8 10 11 13 15 17 20 13 8 6 6 5 7 12 10 9 6 5 9 13 17 25 30 33 35 35 36 35 32 32 32 31 30 30 28 27 26 25 25 24 25 26 26 27 27 26 24 24 23 22 21 19 18 17 15 14 12 11 10 9 8 8 8 9 10 10 12 12 11 10 8 9 13 14 13 11 10 9 9 9 8 7 7 7 7 7
5 4 3 3 4 6 6 6 6 7 7 8 9 10 11 9 13 19 13 8 7 6 5 9 14 13 9 7 6 6 10 20 27 31 34 34 34 35 33 32 33 33 31 30 30 29 27 27 26 26 25 26 26 26 26 26 25 24 23 22 22 21 19 18 16 15 13 11 11 10 10 9 9 8 8 9 10 11 11 11 10 9 11 14 14 13 11 10 9 9 8 8 7 6 6 7 7
6 3 3 3 4 5 6 7 8 7 7 9 9 7 4 2 4 5 7 8 5 5 5 10 12 10 10 12 9 9 16 25 29 32 34 32 33 33 33 33 33 32 31 30 30 28 27 27 27 27 27 27 27 26 25 24 23 23 22 21 21 20 19 18 16 15 13 11 11 11 10 10 9 9 9 8 9 10 10 11 10 10 13 14 14 13 11 10 9 8 8 7 7 6 6 7 7
5 3 3 4 5 5 5 6 8 8 8 12 9 5 2 1 3 4 3 4 3 0 6 6 6 6 13 15 15 21 26 29 31 34 34 32 32 31 31 31 31 31 29 30 28 27 27 28 28 28 28 28 27 26 26 24 23 22 22 21 20 20 19 17 16 15 13 12 12 12 11 11 10 10 9 9 9 8 9 10 9 11 14 14 14 12 11 9 8 7 7 7 6 6 5 6 7
4 4 4 5 6 6 6 6 7 6 8 13 11 6 4 1 2 3 2 5 4 3 7 3 2 6 15 15 23 34 33 32 34 35 32 29 29 27 27 27 28 27 28 28 27 27 27 28 29 28 28 28 27 27 26 24 22 21 21 20 20 19 18 17 16 15 13 12 12 11 10 11 11 10 10 10 10 9 8 8 8 10 13 13 13 11 10 8 7 6 5 5 5 5 4 4 6
5 4 5 6 6 7 7 7 8 6 8 10 6 4 3 2 2 3 3 6 3 4 8 8 10 9 14 21 33 38 33 34 34 33 29 25 24 22 22 24 26 26 27 26 26 27 28 28 29 28 28 28 27 27 26 25 23 22 21 20 20 19 18 17 16 15 14 13 12 10 9 9 9 8 9 9 10 9 7 6 7 8 10 11 10 9 8 6 5 4 3 3 3 3 2 2 4
5 4 5 8 8 7 7 10 11 10 12 9 3 5 6 4 3 2 1 4 4 3 8 11 14 14 18 24 31 33 32 31 31 29 26 23 23 22 21 23 25 26 27 27 27 28 29 29 28 28 28 28 27 27 26 25 24 22 21 21 20 20 19 18 16 15 13 13 11 10 9 9 7 7 7 7 8 8 7 6 6 7 9 10 9 8 7 6 4 3 3 2 1 1 0 2 4
6 4 6 8 8 8 10 12 13 13 15 9 3 4 5 5 4 2 2 2 5 5 8 11 13 15 17 19 22 27 28 26 27 26 23 23 24 24 24 23 25 27 27 28 29 29 30 29 28 28 28 27 28 27 26 26 24 22 22 21 21 20 19 18 16 14 13 12 11 10 9 8 6 5 5 4 3 5 6 6 6 6 7 9 9 8 7 6 5 4 4 3 3 3 2 2 4
4 6 8 7 6 9 13 14 15 16 15 7 2 1 4 5 3 2 5 4 1 2 8 14 17 20 19 18 19 20 21 21 23 23 21 21 23 24 24 24 26 27 28 29 31 31 29 29 29 29 27 27 28 28 28 26 24 22 22 21 21 21 19 18 16 14 13 12 11 10 9 10 7 4 7 6 2 4 4 4 5 5 5 5 6 7 7 5 4 4 5 5 4 5 5 4 5
5 9 10 8 7 9 11 14 17 16 13 10 2 4 3 2 3 3 3 2 4 4 6 16 20 24 23 20 19 17 18 17 19 20 20 21 23 24 24 26 27 27 28 30 32 32 30 30 30 29 28 27 27 29 30 28 24 22 22 21 21 21 19 18 16 14 13 12 11 10 11 11 9 8 10 8 2 3 3 3 3 4 6 5 3 4 5 4 2 1 3 3 1 3 4 4 5
7 9 9 10 12 12 11 12 15 13 11 13 6 3 2 3 0 2 3 5 6 5 8 18 18 23 25 22 21 19 19 19 19 20 21 22 23 25 26 27 28 28 29 30 31 32 31 31 31 30 30 28 26 27 30 28 24 22 21 21 21 20 19 18 16 14 13 13 11 12 13 12 11 10 10 7 2 2 1 2 2 2 4 3 2 2 3 3 2 2 3 4 2 1 2 4 6
11 9 9 10 13 15 15 15 14 12 13 12 4 3 3 2 1 2 5 5 4 3 11 20 15 17 19 19 21 22 22 20 20 22 25 26 27 28 27 26 27 28 28 29 30 31 31 32 32 31 30 28 26 27 30 29 24 22 20 19 20 19 19 17 15 15 14 13 12 13 13 11 11 9 8 7 4 4 3 1 1 1 1 1 0 2 4 4 5 5 6 8 8 6 5 6 10
12 11 10 10 11 13 14 16 14 13 13 9 3 3 4 3 2 3 6 6 1 6 13 17 17 18 17 17 18 19 20 19 18 22 24 20 18 19 18 21 26 27 28 29 29 30 32 33 32 32 30 28 26 28 31 27 25 24 20 19 19 18 17 16 15 14 13 13 12 13 13 12 12 9 7 7 7 8 6 5 5 4 3 3 4 5 5 7 7 7 9 10 9 9 9 10 13
10 11 11 11 12 11 12 15 14 13 11 5 3 4 4 3 4 5 7 6 2 12 16 15 18 19 17 16 15 14 17 18 18 19 18 16 15 16 17 22 26 28 28 30 30 30 32 33 33 31 30 28 27 29 30 26 25 25 21 19 18 17 16 16 16 14 13 14 12 12 13 13 12 10 8 8 8 9 6 4 5 5 5 4 5 6 7 8 7 6 9 9 7 8 9 11 12
8 11 12 14 13 10 11 14 13 12 8 7 5 4 5 4 3 4 5 4 4 14 16 16 17 16 17 16 14 13 13 16 20 20 19 18 21 23 25 25 25 29 31 30 30 31 33 34 32 30 30 29 27 29 29 27 26 24 22 19 18 19 17 16 18 16 14 14 13 12 14 13 10 11 11 9 9 10 9 7 8 8 8 6 5 7 9 9 8 7 9 9 10 10 11 12 11
10 12 12 14 14 12 13 14 13 9 6 8 9 6 6 6 7 6 5 5 5 14 14 16 16 13 15 16 15 12 10 14 19 18 17 18 22 25 25 24 23 27 32 32 31 33 35 34 32 31 31 29 27 28 28 27 26 25 23 20 19 20 18 16 18 17 15 15 15 13 14 14 10 11 12 10 9 10 10 9 10 9 9 8 7 9 10 9 10 10 10 11 11 12 13 14 14
11 12 10 11 14 14 15 15 13 8 6 5 5 5 7 7 8 7 7 8 5 13 16 16 15 13 14 15 14 11 10 13 13 13 17 21 26 28 25 24 24 25 31 32 32 34 34 33 33 30 29 29 28 26 26 27 27 25 24 21 19 20 20 17 16 16 15 16 16 14 15 15 13 13 12 9 9 9 9 8 9 8 9 9 9 9 10 10 10 11 11 11 11 12 13 14 14
10 11 8 7 8 11 12 11 12 11 7 3 4 3 7 8 9 8 7 10 10 10 15 14 12 12 13 13 12 12 13 12 11 12 17 22 26 29 27 28 29 29 30 32 33 35 33 33 32 28 28 31 29 24 24 27 27 24 22 21 19 18 20 18 16 15 16 17 15 13 15 16 14 14 12 10 9 9 8 7 7 8 9 10 10 10 10 11 11 11 11 10 11 11 13 13 13
8 9 7 6 5 5 7 8 9 10 7 6 6 5 7 7 9 11 9 11 13 11 14 14 11 11 11 12 12 12 13 12 14 17 19 24 27 28 28 29 31 28 29 32 33 33 32 32 30 27 30 31 27 22 22 26 27 22 19 20 19 18 20 19 17 16 15 15 14 12 14 15 14 12 11 10 9 8 7 6 7 6 7 8 9 9 9 9 10 10 9 9 10 11 12 13 13
6 7 6 6 5 2 4 9 10 9 7 6 8 7 7 7 8 12 13 13 14 12 14 15 12 12 11 10 10 10 11 11 16 21 23 24 26 28 27 27 25 21 21 25 29 32 31 29 28 28 29 27 25 22 21 23 25 21 17 20 21 19 20 18 17 16 15 14 13 12 12 12 11 9 8 8 7 7 6 5 5 5 5 6 7 7 7 8 8 7 8 9 10 11 12 13 13
5 5 4 3 5 4 3 6 10 12 10 8 11 9 5 6 8 10 12 14 15 12 13 17 13 12 11 10 9 9 9 10 12 18 24 25 24 26 24 23 26 24 22 22 24 30 30 26 28 29 26 25 25 23 20 21 24 21 17 19 20 18 17 16 15 14 13 12 12 11 11 10 9 8 7 6 6 7 6 5 6 6 7 6 5 6 8 8 7 8 9 9 10 11 12 13 14
4 3 4 4 5 6 5 6 7 10 12 12 14 12 7 5 7 12 13 13 15 12 11 16 11 10 11 10 10 9 9 11 11 14 20 22 18 16 18 22 25 27 28 24 21 25 26 25 30 28 24 25 26 24 21 21 22 21 19 19 19 18 15 16 17 15 11 9 9 10 10 9 9 7 8 7 6 8 7 5 5 6 6 5 6 7 7 6 6 8 10 10 11 12 13 13 15
4 4 4 5 6 6 7 7 6 10 14 15 14 13 13 10 7 12 13 10 15 12 11 14 11 12 12 9 10 11 9 7 4 3 6 11 16 19 20 19 19 22 25 23 18 21 25 25 28 25 22 25 26 23 23 21 20 21 22 22 20 19 17 17 18 17 14 10 8 10 10 10 10 8 9 9 7 8 8 4 4 6 6 5 6 7 7 7 8 10 11 12 12 12 13 14 15
8 7 5 6 6 7 8 6 8 12 12 14 15 12 12 13 12 13 13 10 10 9 12 13 12 12 10 8 8 7 9 8 10 16 23 29 28 26 22 17 17 21 24 22 16 18 25 26 25 23 23 26 25 24 24 21 20 23 24 23 21 19 18 17 16 17 17 14 10 10 11 10 10 9 8 9 7 7 9 5 3 7 7 6 6 7 8 8 10 11 11 11 12 13 14 15 15
11 9 7 9 8 7 8 8 10 12 9 11 17 13 11 13 14 15 15 13 5 8 11 13 13 12 10 10 8 12 15 12 15 21 29 33 27 23 22 20 21 23 26 26 21 20 24 25 24 23 24 26 25 26 26 23 23 25 24 23 22 20 18 16 16 16 16 16 12 11 12 10 10 9 8 9 6 6 9 5 3 4 6 6 6 7 8 8 10 12 12 12 13 14 16 16 16
14 9 6 8 9 8 11 12 13 13 9 9 16 16 13 12 12 14 15 12 7 12 13 13 14 13 11 11 12 16 14 11 13 16 22 26 22 18 19 21 25 28 30 32 30 28 27 26 24 24 26 25 24 27 27 24 24 25 23 22 23 21 18 16 16 16 15 15 14 12 12 10 10 9 9 10 6 4 6 5 3 4 5 6 7 8 8 8 10 11 11 13 14 14 16 15 16
12 9 6 6 6 7 11 14 15 14 7 7 15 15 12 11 11 13 13 9 8 14 17 16 16 14 12 11 14 15 13 12 13 12 16 22 23 21 21 22 25 27 29 30 30 29 28 28 26 24 26 25 24 27 27 25 23 23 21 21 21 20 17 16 16 15 14 15 14 13 13 12 10 10 11 10 6 4 5 4 3 3 3 5 6 7 7 7 8 9 9 11 12 13 13 12 14
9 8 7 6 6 6 6 10 15 14 7 6 12 11 8 9 11 12 11 8 10 14 17 15 14 12 9 10 14 14 13 12 13 12 14 18 21 23 24 27 24 19 19 22 22 21 21 26 28 26 26 25 25 26 26 25 22 20 19 19 19 17 16 16 14 13 15 15 15 14 13 13 11 9 10 10 6 4 4 4 3 2 2 3 5 5 6 6 7 8 8 9 10 11 10 10 13
9 10 8 6 9 9 7 8 11 10 6 7 10 6 5 7 10 11 8 7 13 14 13 10 9 9 11 13 13 13 12 12 12 13 13 14 17 18 20 23 21 14 15 19 20 19 19 24 28 29 28 27 27 26 25 24 22 21 19 18 17 14 14 14 13 14 16 16 16 14 13 14 12 9 9 8 6 4 3 2 2 2 1 2 4 4 5 6 6 7 8 9 9 10 11 11 13
9 12 12 9 10 11 12 11 7 4 5 6 9 5 5 5 9 11 5 7 13 12 13 12 11 11 13 13 11 10 11 12 12 12 13 14 16 19 21 21 18 14 17 20 22 26 28 29 30 30 28 26 26 25 24 23 23 22 21 21 19 16 16 16 15 17 18 17 17 14 13 13 11 9 8 7 6 6 4 3 2 1 1 2 3 4 5 6 7 8 9 10 10 11 12 12 12
7 10 11 11 12 12 14 14 8 3 4 5 6 6 4 4 6 10 7 7 12 13 13 14 11 11 12 11 11 11 11 10 10 11 13 14 17 19 22 23 21 21 20 19 25 31 32 31 31 31 29 26 25 25 24 23 22 22 22 22 21 20 19 17 16 17 15 13 14 14 12 12 12 10 9 7 5 4 3 2 1 1 2 3 4 4 5 6 7 8 9 10 11 11 12 12 12
6 7 8 12 13 14 17 13 8 4 3 5 6 7 3 4 5 8 8 7 11 13 13 13 11 12 13 12 12 13 13 12 11 11 12 14 17 21 24 24 26 29 26 22 27 31 32 31 33 33 31 27 26 25 24 23 23 22 21 20 19 19 18 15 15 15 12 9 11 14 13 11 10 8 7 6 4 2 2 2 1 2 3 4 5 5 6 6 7 8 9 9 9 10 11 12 12
6 7 9 11 12 16 17 10 7 6 1 5 7 8 5 5 5 6 7 7 11 13 13 13 11 12 13 12 13 14 13 14 14 14 15 15 18 25 30 30 33 34 29 26 29 31 32 32 33 33 30 29 27 25 24 23 23 23 21 19 18 17 15 13 14 13 13 14 12 12 12 10 9 8 7 5 5 5 4 3 2 2 3 5 6 6 6 6 7 8 9 9 10 10 10 10 11
7 9 11 10 12 14 12 8 5 4 2 5 7 8 5 3 5 5 6 6 10 12 11 12 12 13 13 13 13 13 12 12 14 15 16 17 22 31 35 36 38 38 33 31 31 32 33 31 32 32 30 29 28 26 25 24 23 23 22 20 20 18 14 12 14 14 16 19 13 10 11 9 7 8 8 6 5 4 2 1 1 1 3 4 6 6 7 7 7 9 10 10 10 10 10 10 11
9 10 10 8 10 9 6 5 1 3 3 6 7 9 7 3 5 6 6 6 9 12 11 10 12 12 11 12 12 13 12 11 12 13 14 15 22 30 33 32 38 42 40 38 36 36 36 33 33 32 30 28 28 28 26 24 24 25 23 21 20 18 15 16 18 18 18 19 14 9 8 8 7 7 7 6 4 2 1 1 2 2 3 4 6 7 8 8 9 9 10 10 10 11 11 12 13
9 9 7 5 6 4 2 3 1 2 6 5 7 8 8 4 6 6 7 7 10 16 16 15 17 15 14 14 14 13 13 12 12 13 12 11 14 20 23 25 35 43 44 42 39 38 36 34 34 32 29 28 28 27 26 25 25 24 22 20 19 19 19 21 22 19 18 20 18 10 6 7 9 8 7 5 3 1 1 2 3 3 4 6 6 7 7 7 8 8 9 9 10 11 12 12 13
8 7 6 5 3 4 4 3 3 5 5 4 5 5 5 5 6 7 8 8 10 18 19 20 21 19 17 16 15 13 12 14 14 13 13 12 13 15 17 18 22 30 35 36 36 36 34 32 33 31 28 27 27 27 26 25 24 22 21 20 22 22 23 23 22 21 19 19 19 13 8 8 9 8 6 5 4 3 3 3 4 4 6 7 6 6 6 6 7 7 8 8 10 12 13 13 13
9 7 5 5 3 5 5 4 3 3 3 5 6 5 3 4 4 8 11 10 9 18 21 22 23 21 18 16 14 13 13 13 13 13 14 13 14 15 16 14 13 16 24 29 30 30 28 27 28 28 27 26 27 26 25 25 24 22 22 23 25 25 24 24 23 22 20 17 17 14 10 9 8 7 6 5 5 4 4 4 3 4 6 7 6 6 6 7 8 8 8 8 10 13 13 14 14
9 7 5 4 4 5 4 3 3 2 2 4 5 3 2 4 5 7 12 12 8 17 18 18 19 17 15 13 13 14 14 13 12 13 14 14 15 17 17 16 14 16 20 23 24 26 26 26 26 25 24 25 25 24 23 24 24 22 22 23 24 25 25 24 22 21 20 17 16 14 10 8 7 7 7 5 4 4 5 4 3 4 5 7 7 7 7 7 8 8 8 8 10 12 13 14 14
7 7 6 6 4 5 4 4 4 4 1 2 4 3 2 4 7 7 8 7 7 16 15 14 15 13 13 13 13 14 13 13 13 13 14 14 15 17 18 18 18 19 20 21 23 24 25 25 25 23 23 24 23 23 22 23 23 21 21 22 23 25 24 24 23 21 19 16 14 12 9 7 6 6 6 5 5 4 4 4 4 4 4 5 6 7 7 7 7 8 9 10 11 12 14 15 15
5 6 6 5 3 4 5 5 4 4 2 3 5 4 4 4 8 10 7 3 9 14 14 16 16 13 13 13 12 14 14 14 14 13 14 15 14 16 19 19 20 21 21 22 23 23 23 24 24 23 22 21 21 22 23 23 23 22 22 23 23 23 23 23 23 21 18 15 12 10 8 7 5 4 4 5 5 3 3 3 4 5 4 4 6 7 6 6 7 9 11 11 12 13 14 15 15
6 6 5 2 3 3 4 4 4 4 2 3 5 5 3 3 5 9 6 7 14 14 12 14 13 12 12 11 12 14 14 14 14 13 14 14 13 15 18 19 21 23 24 24 23 23 23 24 23 23 22 22 22 23 23 23 23 23 23 22 21 20 20 20 20 18 15 13 11 9 8 6 5 5 4 5 4 3 2 3 3 5 5 6 8 8 7 6 8 10 11 11 11 13 15 15 15
5 5 5 4 4 5 2 3 5 6 3 1 4 4 4 5 4 6 5 7 17 15 14 16 15 13 12 10 11 12 12 13 12 12 12 12 12 15 18 20 22 24 25 25 25 24 24 23 23 23 23 23 23 23 24 23 24 25 24 22 21 20 18 17 16 15 14 12 11 9 8 7 6 6 5 4 4 4 4 3 3 5 7 7 9 9 8 8 10 11 11 11 12 12 14 15 16
3 3 6 6 5 3 3 3 4 5 4 2 4 3 4 5 5 6 5 9 18 17 16 17 17 16 14 12 12 12 13 12 12 12 12 12 13 17 21 22 24 26 26 26 27 27 25 24 24 24 24 24 24 25 25 24 25 26 25 23 22 19 17 16 16 15 14 14 11 9 8 8 8 7 7 5 3 4 5 4 4 5 7 8 9 9 8 9 12 11 10 12 13 13 14 14 14
3 3 6 7 4 3 3 2 3 4 4 4 3 3 5 5 4 8 8 13 19 19 17 14 15 16 15 15 15 14 13 13 12 12 12 12 13 17 22 24 25 25 25 26 28 28 27 26 26 27 26 26 26 26 26 26 26 27 26 24 21 18 17 16 16 16 16 15 12 9 9 10 9 7 6 4 3 4 5 5 6 7 7 7 9 10 9 10 12 12 10 13 13 13 14 13 14
5 4 5 6 5 4 4 3 2 2 3 4 5 4 6 5 3 2 6 14 17 19 18 14 13 14 14 15 16 16 14 13 13 12 13 13 13 16 21 24 25 25 24 26 28 29 29 28 29 29 28 28 28 27 27 27 27 26 25 23 21 19 17 16 16 16 16 15 13 10 9 9 8 7 5 4 4 5 5 6 8 7 5 5 7 10 10 10 13 12 12 14 14 13 13 14 16
Wind_Direction
269 258 274 308 313 327 320 268 192 270 201 235 235 243 250 241 253 268 271 273 277 282 294 45 61 61 98 108 106 77 43 58 144 137 154 124 125 139 150 151 149 149 146 144 145 145 147 149 149 150 148 148 149 149 148 146 145 144 143 141 138 136 136 135 131 126 125 123 122 121 121 120 120 121 119 117 112 110 109 106 106 104 101 101 100 99 99 100 98 93 90 90 91 92 92 94 97
253 243 253 294 298 310 296 184 190 255 220 253 228 223 244 253 256 250 255 255 256 257 16 80 81 75 106 112 102 79 47 45 96 93 96 117 117 131 145 150 151 148 145 144 146 147 147 148 149 150 149 148 149 149 148 146 145 145 144 142 140 139 139 135 130 128 127 125 124 124 123 122 122 123 123 121 117 116 113 109 109 107 105 103 102 102 104 103 97 91 88 90 93 95 94 94 100
246 246 261 292 285 235 284 275 190 212 221 244 232 233 241 252 253 247 253 255 258 223 137 74 68 56 99 91 81 92 92 81 98 93 114 125 119 133 143 148 151 148 145 145 147 149 148 148 150 150 149 148 148 149 148 145 144 145 144 143 142 142 140 135 131 131 129 128 127 125 125 124 125 125 126 125 122 120 116 112 111 110 108 106 106 105 106 104 95 90 88 88 92 97 97 93 97
245 244 264 299 307 206 341 263 188 201 218 232 238 238 239 244 250 253 257 287 355 125 114 73 73 20 81 93 95 101 114 119 115 114 128 133 133 142 144 145 147 143 142 146 148 149 149 148 150 149 149 149 148 148 147 146 145 145 146 145 144 143 140 135 134 134 132 130 129 128 127 127 127 128 130 129 126 125 121 117 115 116 115 114 115 110 107 105 95 88 86 84 88 96 99 93 90
250 249 257 251 223 207 182 233 188 205 218 220 229 234 250 255 260 267 248 134 100 86 14 43 96 48 72 98 113 105 125 128 126 121 114 128 138 143 144 142 141 139 141 147 149 150 149 149 151 150 150 149 147 147 147 147 146 146 147 147 145 143 139 137 137 135 133 132 132 131 129 128 128 129 133 133 130 129 127 124 123 125 124 124 125 116 111 110 98 90 87 83 84 89 95 91 87
256 271 261 232 250 291 220 237 210 220 225 217 233 235 249 264 274 282 265 218 138 118 97 31 96 88 70 66 55 92 144 127 118 122 121 132 140 144 142 140 138 138 143 148 150 150 148 151 152 151 150 148 147 144 146 147 146 147 148 147 145 142 140 140 139 137 136 136 135 133 131 130 128 131 134 134 133 130 128 127 127 129 123 122 123 115 114 113 99 92 88 84 84 83 86 85 90
254 287 260 205 262 281 221 241 231 234 227 216 233 238 239 256 267 277 277 276 310 127 138 116 99 94 79 96 49 46 130 122 120 130 133 137 141 142 141 140 138 140 146 149 150 149 148 152 153 152 150 148 147 144 144 146 147 147 146 145 144 143 141 141 140 139 139 140 137 135 135 133 131 133 135 136 136 135 132 128 128 129 121 117 121 120 119 114 100 94 88 85 86 83 81 79 95
245 257 223 154 229 246 221 252 249 247 245 229 232 232 235 246 252 265 269 263 275 208 147 135 106 93 66 94 73 41 107 118 127 132 135 137 140 141 141 140 139 142 147 149 149 147 149 153 155 153 150 148 147 146 144 145 147 145 144 144 144 144 143 143 142 141 141 141 139 138 138 136 137 140 142 141 140 140 135 133 135 134 130 127 130 128 122 113 102 95 87 87 89 86 79 77 101
237 223 247 182 213 240 234 248 252 252 260 262 259 245 238 241 244 249 251 241 211 166 161 158 111 110 100 87 90 66 95 117 126 130 135 138 140 141 141 142 141 143 146 148 147 147 150 154 155 153 150 149 148 148 146 146 146 144 144 146 146 145 145 145 144 144 143 140 140 140 140 141 144 149 153 151 148 147 139 136 138 138 145 146 137 130 125 114 104 96 89 92 93 90 79 77 107
227 203 218 217 207 235 242 239 244 247 246 251 261 262 260 254 253 247 228 222 211 171 151 120 100 114 114 95 94 89 108 122 126 130 137 140 142 141 140 142 145 146 147 148 147 148 150 153 153 151 150 149 150 149 148 146 144 145 147 148 148 147 147 147 146 145 143 141 142 143 146 150 153 157 163 164 156 152 148 144 142 140 147 151 143 135 129 116 105 97 92 96 95 90 80 78 109
221 210 196 234 227 227 236 240 241 243 241 239 242 248 256 258 264 258 217 219 204 129 97 84 101 110 102 98 99 118 123 126 128 133 138 140 140 140 138 142 148 150 149 148 148 148 148 151 151 149 149 150 152 149 148 147 146 148 149 149 149 149 149 148 147 145 144 143 144 147 153 155 155 154 159 168 163 158 158 154 149 149 146 145 146 140 130 119 109 100 95 98 96 89 81 79 105
217 225 173 218 230 221 232 242 247 252 249 242 238 236 236 240 253 256 227 211 138 126 176 100 123 115 97 108 108 123 127 125 129 133 136 135 135 137 139 144 149 150 149 148 148 148 148 150 150 149 150 152 152 150 149 149 149 151 151 151 150 151 151 149 147 145 145 144 145 149 153 151 143 134 138 157 165 167 168 163 158 162 152 146 148 141 132 123 112 104 99 99 96 87 80 78 93
217 228 173 209 225 229 247 247 251 257 257 252 245 237 227 224 231 242 232 188 158 165 184 140 132 112 104 123 114 125 131 128 127 130 133 132 134 136 139 143 147 148 149 150 149 149 150 150 152 153 154 154 154 152 152 152 152 153 152 153 152 152 151 150 148 146 145 143 145 147 145 138 128 121 126 143 157 168 174 175 174 170 155 150 149 142 135 128 118 109 102 99 94 87 79 77 82
218 230 193 220 228 227 243 248 258 256 259 256 254 252 236 230 232 232 217 169 153 174 164 130 121 100 113 132 121 142 149 136 128 129 131 131 134 136 139 141 145 148 149 151 150 149 151 153 155 156 157 157 156 155 155 154 153 153 154 154 153 154 152 151 149 146 144 143 143 140 136 128 120 115 117 129 144 160 170 177 179 172 159 155 152 146 142 134 124 114 105 100 92 90 82 80 81
215 235 228 239 238 230 232 231 245 251 264 259 259 269 247 261 261 210 166 147 152 182 101 110 124 107 146 159 152 172 162 142 131 131 130 131 134 135 139 141 145 147 148 151 149 150 153 156 158 159 160 158 158 157 155 155 155 155 155 154 154 155 154 152 150 146 144 144 141 135 131 124 117 110 107 112 127 146 159 170 175 171 164 160 157 152 148 141 131 120 109 103 93 94 89 85 86
209 225 239 244 242 238 235 225 234 239 256 260 263 278 251 356 30 63 110 126 116 299 57 115 159 129 164 171 157 161 157 143 134 134 132 131 133 134 138 141 143 145 148 150 149 152 155 159 161 161 162 160 159 158 155 156 157 158 157 155 155 156 155 154 151 148 146 144 140 134 132 127 120 111 106 103 108 124 141 158 168 168 168 164 162 159 153 146 138 127 114 106 93 94 97 98 95
206 216 231 242 237 234 236 230 235 225 241 255 260 259 227 201 96 88 32 51 49 27 49 59 6 117 159 160 145 150 151 143 138 136 134 134 135 135 139 142 143 145 149 150 151 156 159 162 162 162 163 161 160 158 157 157 158 160 158 156 156 158 157 156 153 150 149 147 143 138 136 130 123 115 109 105 101 103 118 144 156 164 170 168 167 162 156 152 144 136 124 112 99 100 102 116 111
216 200 216 235 230 230 234 240 253 253 261 263 264 291 278 242 123 129 77 55 35 45 59 53 34 67 121 130 137 145 148 144 142 141 141 142 142 141 145 148 147 149 152 153 157 161 163 164 162 163 163 162 162 160 159 158 160 161 160 158 158 160 159 159 157 154 153 151 148 144 137 128 120 110 105 103 99 96 101 127 144 154 165 171 172 166 163 161 156 155 145 127 114 111 99 138 136
229 198 209 229 227 236 244 251 261 264 270 277 317 4 349 340 17 30 98 144 177 117 80 76 70 79 103 124 137 144 148 147 147 148 148 150 151 150 152 155 154 155 158 157 160 165 164 161 163 165 163 164 165 163 162 160 162 162 162 161 160 161 163 162 160 158 158 154 152 149 137 125 113 96 96 98 95 99 100 112 135 152 164 173 176 176 178 179 180 184 184 194 202 195 15 176 175
232 211 223 227 222 244 257 257 262 264 268 279 353 9 339 338 10 9 6 132 176 155 120 105 104 115 122 133 142 146 149 150 151 153 154 155 156 155 156 159 160 161 162 159 161 166 162 161 166 165 162 165 167 166 166 163 163 164 165 164 163 164 165 165 162 160 160 157 155 154 142 134 125 95 110 130 104 104 103 106 120 142 165 180 187 192 194 198 206 216 224 235 246 258 279 215 206
230 219 233 237 214 229 247 256 265 267 271 283 62 34 309 317 341 22 11 11 290 205 155 144 139 136 138 145 148 151 152 152 155 159 158 158 159 158 160 161 162 164 162 159 163 165 164 166 166 163 164 165 166 168 168 166 164 167 168 167 166 166 167 165 164 164 162 161 160 159 154 152 160 153 160 190 198 112 104 100 107 120 146 165 188 206 209 213 222 242 250 249 266 275 269 243 228
236 240 238 243 238 235 237 243 255 261 274 286 214 172 223 262 317 0 352 292 245 265 145 146 147 145 150 153 151 153 156 157 160 166 165 164 164 162 162 161 162 165 162 161 164 166 168 169 165 164 166 165 166 169 169 167 164 169 171 169 169 168 168 166 166 169 167 168 162 161 163 156 169 186 188 207 219 128 113 93 93 113 134 131 136 187 194 188 193 293 275 241 281 319 279 257 248
224 248 240 233 237 251 257 248 256 268 286 289 262 194 169 147 245 305 274 235 244 291 132 146 154 151 152 151 153 158 162 167 169 172 168 164 166 166 166 163 164 165 162 164 165 166 169 169 166 165 165 164 168 170 168 165 164 170 171 170 171 169 169 167 169 174 174 174 163 163 166 158 169 189 198 206 198 158 128 86 52 80 142 146 105 173 191 188 213 279 293 262 256 310 296 293 287
222 237 240 232 226 237 256 261 267 279 282 282 287 18 16 93 127 293 282 244 257 330 131 144 140 137 145 151 160 164 166 171 171 173 171 168 170 169 167 164 164 164 162 165 166 166 168 167 167 166 164 166 169 167 163 162 165 169 170 172 171 170 171 171 174 177 181 179 167 166 165 163 176 188 194 200 211 229 244 255 302 8 134 188 214 249 253 268 269 266 283 283 273 264 262 287 291
228 228 234 238 229 224 239 253 260 267 271 278 310 355 347 343 319 290 276 264 254 98 119 128 130 136 148 160 167 167 168 170 169 174 170 163 161 159 164 165 163 164 164 166 167 167 166 166 166 165 165 167 167 164 160 162 168 170 173 176 171 170 172 172 178 181 185 182 173 169 165 171 188 193 184 189 216 233 244 254 255 277 282 265 261 255 264 283 284 272 275 284 281 268 261 271 279
231 227 228 234 239 230 232 247 248 252 255 241 268 289 287 305 315 292 268 281 56 116 126 131 141 151 157 162 170 173 172 169 171 167 152 144 149 155 173 178 169 166 167 167 166 166 165 165 165 165 167 166 164 162 160 163 169 169 174 177 170 171 175 175 185 188 184 179 174 173 172 181 196 204 194 178 197 215 214 211 221 236 240 241 251 241 243 263 271 263 260 268 272 263 261 267 274
239 234 229 228 238 241 243 253 250 251 246 186 182 240 255 241 235 264 263 274 113 126 138 146 152 159 160 160 166 177 181 177 172 155 139 148 161 169 179 185 176 166 165 166 165 164 164 165 165 166 166 164 161 161 161 163 167 166 169 175 169 170 176 178 186 189 181 176 177 181 182 187 191 193 196 189 194 210 211 204 206 212 214 209 218 227 231 244 253 255 250 256 263 263 265 267 276
251 247 242 230 229 234 239 251 254 257 247 192 175 199 223 214 217 226 232 252 155 137 148 157 161 164 161 161 164 172 183 183 176 158 150 159 167 174 178 181 177 164 163 164 163 162 163 165 166 166 165 162 160 160 164 167 170 168 167 173 172 171 175 175 176 179 179 183 183 183 188 193 187 175 184 196 202 211 218 219 220 221 225 224 227 232 236 245 251 255 254 257 265 267 269 271 281
258 254 255 240 229 229 227 236 248 252 250 208 163 203 225 214 224 220 207 234 199 148 157 167 167 164 162 164 165 169 175 179 178 166 164 166 168 173 173 174 174 165 163 163 161 161 161 164 167 168 166 164 162 161 169 173 171 169 168 172 175 174 179 177 171 174 182 187 186 187 194 199 194 184 184 194 204 211 215 223 230 233 236 236 239 243 248 257 259 260 261 266 274 278 279 283 291
255 253 256 253 239 233 221 223 239 241 241 197 136 232 245 225 225 229 214 217 216 173 165 174 170 164 167 166 166 169 170 171 173 171 169 168 168 170 171 172 171 166 162 159 159 160 160 162 166 166 162 162 163 161 164 166 163 163 166 173 175 173 179 177 170 176 181 183 190 197 200 202 200 196 195 199 210 215 214 223 235 242 247 246 251 257 260 264 267 269 271 278 286 291 291 292 295
244 246 244 238 237 235 209 210 232 235 228 178 164 233 246 233 221 220 225 216 216 199 173 177 174 165 167 167 170 168 169 169 167 171 172 173 172 170 171 172 170 166 158 155 157 158 158 161 163 159 156 159 161 157 152 156 159 158 160 171 169 162 170 170 168 177 181 187 199 201 198 200 200 198 200 203 211 215 217 233 243 248 251 251 260 268 271 272 273 274 281 290 291 292 292 293 295
232 229 229 223 225 237 211 212 218 224 232 194 189 233 238 227 225 215 217 216 216 208 180 178 177 169 166 167 170 165 166 165 165 173 179 180 176 170 170 168 162 154 150 153 154 155 155 160 162 154 154 159 158 154 145 148 159 157 156 167 162 156 164 170 175 184 191 198 202 196 191 191 190 189 190 193 203 210 218 240 252 259 253 257 270 273 278 283 285 286 289 291 291 294 296 298 299
238 213 203 220 216 216 238 225 214 213 220 214 210 231 239 216 231 233 223 214 216 215 183 178 178 168 164 162 167 168 162 159 168 178 181 182 178 170 164 155 149 146 148 153 154 154 151 154 160 153 150 155 155 154 147 149 161 162 161 165 160 157 162 168 176 185 194 200 197 191 189 188 187 184 186 197 210 207 206 230 245 246 245 255 264 263 273 281 288 295 294 291 291 296 300 301 301
257 224 201 242 225 200 221 230 229 219 210 213 218 224 234 220 222 236 236 217 217 220 176 174 173 158 166 164 166 172 161 165 180 183 183 182 172 150 136 133 140 145 147 153 156 152 147 148 156 153 147 152 155 157 153 155 165 168 168 166 162 162 164 170 176 178 184 197 206 202 197 193 190 187 196 208 212 202 201 230 243 232 237 251 260 271 284 286 282 288 291 293 296 298 298 300 303
236 223 192 234 245 221 220 212 217 228 216 211 215 219 226 231 229 239 246 222 213 210 165 165 165 155 164 159 163 172 161 161 167 135 124 116 98 94 106 117 128 137 139 145 149 145 145 150 156 153 150 155 156 156 158 159 162 164 166 167 167 170 177 184 184 177 173 185 219 223 208 195 194 196 203 208 210 207 200 211 241 239 254 263 263 279 293 294 294 295 294 293 298 301 300 301 305
229 226 192 206 234 237 235 223 211 224 221 210 213 218 216 220 228 238 252 242 213 189 159 160 162 156 154 152 161 138 99 76 55 56 61 70 80 92 104 113 123 133 134 134 134 137 142 149 155 155 156 159 156 156 162 160 156 159 163 168 170 173 184 189 183 174 169 175 199 223 213 198 201 199 198 210 220 211 197 196 243 245 257 269 267 279 293 301 305 308 310 308 308 308 307 308 311
238 233 210 208 220 235 240 246 240 231 226 209 208 215 213 214 222 224 238 247 203 146 157 165 164 160 158 159 133 84 81 82 71 68 69 72 78 89 101 113 124 132 136 137 136 139 145 152 158 157 159 162 160 163 167 162 159 161 163 169 173 178 187 183 177 174 171 172 182 212 219 202 199 197 198 219 233 211 199 206 253 239 245 269 277 276 285 292 293 297 304 308 311 312 313 314 317
238 240 226 215 212 222 226 232 244 239 237 217 200 207 218 217 226 225 224 231 182 153 166 174 169 165 167 154 111 89 93 97 87 80 82 87 88 90 102 119 133 141 146 148 148 150 154 162 165 162 163 167 168 170 172 168 168 169 168 174 179 180 183 180 176 174 175 179 178 193 207 196 194 200 206 221 230 201 197 215 259 267 257 265 279 278 281 289 295 302 306 308 309 313 315 316 323
238 242 238 232 216 218 220 223 236 237 237 217 193 198 218 221 235 238 222 208 178 170 172 173 171 169 170 147 110 99 103 107 109 108 109 112 112 115 125 137 145 149 153 154 154 153 156 164 168 169 171 173 173 174 178 176 175 178 177 180 181 177 177 178 176 174 180 185 175 174 190 195 198 204 207 217 222 199 204 222 246 281 274 274 294 302 309 322 328 330 333 330 323 321 322 327 338
240 238 233 246 247 240 229 223 232 233 220 188 184 190 212 220 237 249 234 186 161 173 174 167 162 159 147 122 112 113 117 124 125 121 123 123 120 125 138 148 148 147 149 148 148 147 153 164 169 174 177 177 176 178 183 181 177 179 179 178 178 173 172 174 175 180 185 180 165 163 184 197 201 203 201 210 219 209 216 227 237 266 288 309 323 332 339 341 341 342 349 352 344 338 337 341 348
238 239 231 235 248 253 259 240 232 233 220 173 166 184 232 221 226 248 251 169 155 165 163 139 115 114 103 100 116 126 129 133 133 130 128 124 122 122 132 141 141 141 140 135 138 146 156 168 174 178 180 181 181 181 184 182 178 177 173 170 171 167 167 175 182 186 187 177 160 161 185 196 197 199 195 203 209 188 179 197 226 256 289 347 347 345 340 334 337 343 349 351 350 351 349 345 347
233 238 229 231 246 254 264 264 251 235 232 197 155 170 258 242 218 236 247 149 153 155 142 124 108 108 106 109 122 132 133 137 142 139 128 122 122 119 126 134 135 142 142 138 150 164 172 176 179 182 182 184 185 184 184 183 180 176 172 169 165 159 164 177 187 187 183 172 157 161 181 186 186 187 182 187 191 183 185 200 222 278 338 21 6 352 348 345 343 345 344 341 341 346 347 346 344
223 229 223 233 250 258 267 273 275 244 217 215 156 154 255 287 237 235 224 150 150 154 138 126 125 119 118 125 130 132 134 140 143 135 126 127 126 129 141 145 145 155 158 158 167 174 178 177 180 184 185 186 185 184 185 183 180 176 175 176 170 165 169 177 184 180 176 167 156 164 175 178 185 187 183 180 183 200 221 228 242 346 353 357 357 354 357 356 348 344 343 341 342 345 346 346 344
213 212 213 228 241 252 261 266 270 264 181 191 176 147 176 268 257 244 226 164 151 159 141 127 133 129 128 133 133 137 143 146 144 138 137 140 141 148 154 152 156 164 168 174 177 178 178 176 180 185 185 186 184 182 183 183 181 177 177 178 170 164 165 167 168 168 173 169 161 167 166 166 177 177 178 179 168 171 133 112 114 49 24 9 359 356 359 356 353 351 349 348 348 349 351 349 345
206 200 210 224 231 241 252 258 267 284 159 194 201 153 158 242 249 262 251 187 161 162 148 136 139 137 136 137 136 143 150 150 148 148 151 153 156 158 158 158 160 163 169 182 186 184 180 179 181 182 183 185 183 180 180 182 181 176 175 172 161 152 148 153 164 169 169 157 157 178 170 161 167 154 149 153 145 152 142 133 134 76 38 23 9 359 355 347 348 354 356 356 353 351 351 346 340
193 201 216 221 228 236 245 250 270 315 312 233 215 167 158 253 240 243 256 217 176 167 151 140 146 146 142 142 145 148 148 150 151 153 157 164 167 164 164 165 160 159 171 186 191 188 185 184 182 181 182 182 180 180 179 179 179 175 171 164 155 150 149 158 167 166 157 146 155 202 185 163 167 154 150 157 158 169 175 206 274 9 10 14 9 358 353 347 347 349 350 351 350 349 345 339 337
180 204 224 217 226 237 246 244 272 350 286 251 229 189 170 229 242 218 225 221 176 156 143 136 148 153 148 148 154 153 149 150 151 155 163 170 170 169 172 168 157 158 173 185 190 189 186 186 183 181 180 178 178 179 177 176 177 174 170 166 160 156 156 162 161 156 148 140 148 192 182 157 159 154 158 165 161 173 235 319 325 330 341 357 0 357 355 351 350 350 350 351 351 351 347 342 339
186 202 214 197 221 237 281 279 228 237 248 253 249 214 180 196 242 221 218 221 169 148 148 153 159 165 165 165 165 158 149 147 151 159 166 166 167 177 185 175 160 163 173 181 184 184 184 185 182 179 178 178 178 178 176 176 175 172 171 169 164 159 160 163 157 147 146 145 147 170 184 164 159 154 152 149 133 96 13 3 354 355 7 7 3 360 356 354 354 355 358 357 356 356 351 347 343
202 208 190 163 193 202 222 253 219 225 243 265 285 260 204 206 238 239 242 234 173 154 156 161 166 170 172 172 165 155 148 148 155 163 167 169 171 180 191 185 170 168 171 175 177 179 181 182 179 176 174 175 176 177 178 176 172 172 172 167 161 160 163 162 154 147 152 152 146 155 175 162 151 146 134 114 89 56 20 19 25 22 19 11 359 352 352 353 355 358 2 4 8 9 4 1 357
205 211 170 147 159 179 205 227 222 244 270 274 292 309 269 234 248 244 246 247 181 159 163 165 168 170 169 168 158 149 147 151 159 165 168 175 176 175 181 182 172 161 164 170 173 174 175 176 176 173 170 173 174 177 179 174 170 171 168 162 160 161 164 161 156 151 149 143 135 141 154 145 131 121 109 94 76 47 21 25 29 13 15 11 352 343 345 347 352 356 1 7 13 13 12 12 8
204 207 172 169 175 172 193 196 189 229 292 285 272 280 207 203 236 225 227 242 188 159 165 162 161 163 156 150 145 146 150 154 162 169 173 177 174 171 173 173 166 158 162 169 169 168 169 172 173 169 167 171 173 175 178 172 169 169 166 162 160 163 164 158 153 148 141 134 133 140 148 144 129 109 95 82 60 36 26 22 346 336 358 2 352 349 348 350 359 4 6 14 16 16 18 20 23
195 190 188 207 189 146 167 189 175 168 184 284 252 253 210 216 274 273 243 246 163 151 151 143 149 155 148 144 144 150 156 158 165 172 174 174 170 167 168 168 166 163 163 165 166 167 168 168 170 166 164 169 171 173 173 169 167 166 165 162 160 162 158 149 145 143 139 137 137 141 145 145 138 116 96 77 57 36 26 12 355 1 7 356 354 358 0 5 14 16 20 26 25 25 30 35 42
170 177 200 219 207 130 139 181 180 140 163 244 235 260 290 285 294 292 292 34 122 146 146 145 154 155 150 151 149 153 159 162 169 172 171 170 168 167 165 165 164 162 160 163 167 167 164 163 162 160 161 166 170 170 168 167 166 164 162 158 155 153 148 142 140 138 136 134 131 134 137 135 132 118 89 72 63 39 23 23 30 49 47 16 8 10 16 25 28 30 33 35 30 32 41 46 48
150 180 200 202 245 230 130 141 178 167 173 250 226 220 250 264 273 283 305 92 130 149 140 141 150 149 153 157 154 158 161 162 165 167 168 169 167 164 162 161 162 160 159 162 164 162 160 159 156 154 159 163 167 169 166 164 162 157 151 144 142 143 140 138 135 130 130 130 125 126 128 123 115 99 77 72 80 81 84 88 77 64 47 28 24 29 41 47 43 43 42 39 36 41 49 51 46
157 174 170 162 219 233 156 128 168 179 171 285 264 234 216 220 226 272 295 125 139 145 138 144 152 154 159 158 155 158 158 159 160 161 166 168 166 164 161 160 160 159 160 159 158 155 152 153 156 159 162 163 163 162 158 155 150 143 138 136 138 141 139 133 126 123 125 126 128 130 122 114 110 103 107 118 112 102 94 83 56 44 41 42 42 46 59 59 51 48 46 44 44 47 50 48 40
212 190 172 188 208 172 166 173 152 159 165 205 271 276 252 237 201 224 240 147 143 147 149 156 161 162 163 158 159 162 161 165 163 161 166 167 166 165 163 161 160 161 160 156 153 152 150 153 159 161 159 156 154 150 148 145 140 137 136 138 141 141 136 129 125 125 123 122 127 130 125 126 126 119 124 139 127 95 80 62 52 56 61 68 68 67 68 63 56 53 48 47 50 52 51 47 39
209 200 182 200 214 151 173 217 161 148 150 172 221 261 264 258 215 216 202 154 150 152 154 161 163 163 163 160 162 164 164 167 164 162 165 163 162 162 161 160 159 159 157 152 149 151 153 155 158 156 152 149 147 145 144 141 139 139 138 138 137 136 133 129 129 131 128 123 123 125 135 145 145 132 123 131 132 98 75 69 80 87 87 85 81 78 74 66 64 63 57 55 59 60 58 55 47
198 207 192 188 183 159 181 236 233 157 143 162 173 217 257 267 288 264 161 151 156 152 150 159 163 162 166 166 165 163 162 164 163 162 160 158 159 158 156 155 156 158 155 151 149 150 152 153 153 151 148 147 147 144 141 139 138 138 137 135 134 132 133 132 133 136 134 130 123 117 131 147 148 139 124 117 119 100 84 94 103 104 109 102 85 80 78 72 69 67 64 63 62 61 62 61 53